St. Joseph, KS

7:26 PM CDT on September 25, 2017 (GMT -0500)
Rosecrans Memorial

Weather History for KSTJ - December, 2014

Change the Weather History Date:

Monday, December 29, 2014

  Actual Average Record
Temperature  
Mean Temperature 29 °F 27 °F  
Max Temperature 41 °F 36 °F 67 °F (1984)
Min Temperature 17 °F 17 °F -13 °F (1917)
Degree Days  
Heating Degree Days 36 38  
Month to date heating degree days 860 1025  
Since 1 July heating degree days 2106 2136  
Cooling Degree Days 0 0  
Month to date cooling degree days 0 0  
Year to date cooling degree days 1182 1221  
Moisture  
Dew Point 21 °F    
Average Humidity 73    
Maximum Humidity 96    
Minimum Humidity 50    
Precipitation  
Precipitation 0.00 in 0.04 in 0.21 in (1971)
Month to date precipitation 0.96 1.43  
Year to date precipitation 31.91 35.51  
Sea Level Pressure  
Sea Level Pressure 30.39 in    
Wind  
Wind Speed 9 mph (NNE)    
Max Wind Speed 22 mph    
Max Gust Speed 26 mph    
Visibility 10 miles    
Events      
T = Trace of Precipitation, MM = Missing Value Source: NWS Daily Summary

Daily Weather History Graph

Daily Weather History Graph

Search for Another Location

Airport or City:

Trip Planner

Search our weather history database for the weather conditions in past years. The results will help you decide how hot, cold, wet, or windy it might be!

Date:

Astronomy

Dec. 29, 2014 Rise Set
Actual Time 7:40 AM CST 5:03 PM CST
Civil Twilight 7:09 AM CST 5:33 PM CST
Nautical Twilight 6:36 AM CST 6:07 PM CST
Astronomical Twilight 6:03 AM CST 6:40 PM CST
Moon 12:39 PM CST (12/29) 12:58 AM CST (12/29)
Length of Visible Light 10h 23m
Length of Day
9h 23m
First Quarter, 61% of the Moon is Illuminated
Dec 29
First Quarter
Jan 4
Full
Jan 13
Last Quarter
Jan 20
New
Jan 26
First Quarter

Hourly Weather History & Observations

Time (CST) Temp. Windchill Dew Point Humidity Pressure Visibility Wind Dir Wind Speed Gust Speed Precip Events Conditions
12:53 AM 27.0 °F - 23.0 °F 85% 30.24 in 10.0 mi Calm Calm - N/A   Scattered Clouds
1:53 AM 28.0 °F - 24.1 °F 85% 30.24 in 10.0 mi Calm Calm - N/A   Mostly Cloudy
2:53 AM 27.0 °F - 23.0 °F 85% 30.25 in 10.0 mi Calm Calm - N/A   Clear
3:53 AM 26.1 °F - 23.0 °F 88% 30.25 in 10.0 mi Calm Calm - N/A   Clear
4:53 AM 26.1 °F - 23.0 °F 88% 30.25 in 10.0 mi Calm Calm - N/A   Clear
5:53 AM 23.0 °F 17.0 °F 21.0 °F 92% 30.28 in 10.0 mi North 4.6 mph - N/A   Clear
6:53 AM 21.9 °F - 19.0 °F 89% 30.30 in 10.0 mi Calm Calm - N/A   Partly Cloudy
7:53 AM 21.0 °F 16.2 °F 18.0 °F 88% 30.33 in 10.0 mi North 3.5 mph - N/A   Overcast
8:53 AM 28.0 °F - 25.0 °F 88% 30.34 in 10.0 mi Calm Calm - N/A   Overcast
9:53 AM 30.9 °F - 26.1 °F 82% 30.36 in 10.0 mi Calm Calm - N/A   Overcast
10:53 AM 36.0 °F - 24.1 °F 62% 30.38 in 10.0 mi Calm Calm - N/A   Partly Cloudy
11:53 AM 37.9 °F 32.7 °F 23.0 °F 55% 30.35 in 10.0 mi Variable 6.9 mph - N/A   Clear
12:53 PM 39.9 °F 33.9 °F 23.0 °F 51% 30.34 in 10.0 mi ENE 9.2 mph - N/A   Scattered Clouds
1:53 PM 39.9 °F 31.4 °F 26.1 °F 58% 30.33 in 10.0 mi NNE 16.1 mph - N/A   Mostly Cloudy
2:53 PM 39.0 °F 30.3 °F 24.1 °F 55% 30.35 in 10.0 mi NNE 16.1 mph - N/A   Clear
3:53 PM 37.0 °F 27.7 °F 25.0 °F 62% 30.38 in 10.0 mi NNE 16.1 mph - N/A   Clear
4:53 PM 30.9 °F 19.4 °F 24.1 °F 76% 30.42 in 10.0 mi NNE 17.3 mph - N/A   Partly Cloudy
5:40 PM 30.0 °F 18.7 °F 24.1 °F 79% 30.41 in 10.0 mi NNE 16.1 mph - N/A   Mostly Cloudy
5:53 PM 30.0 °F 19.5 °F 24.1 °F 79% 30.45 in 10.0 mi NNE 13.8 mph - N/A   Overcast
6:53 PM 28.9 °F 16.5 °F 21.9 °F 75% 30.49 in 10.0 mi NNE 18.4 mph - N/A   Overcast
7:53 PM 28.0 °F 14.9 °F 21.0 °F 75% 30.51 in 10.0 mi NNE 19.6 mph - N/A   Overcast
8:53 PM 26.1 °F 13.1 °F 19.0 °F 75% 30.56 in 10.0 mi North 17.3 mph - N/A   Overcast
9:53 PM 23.0 °F 9.6 °F 16.0 °F 74% 30.60 in 10.0 mi North 16.1 mph - N/A   Overcast
10:19 PM 21.0 °F 5.7 °F 14.0 °F 74% 30.58 in 10.0 mi North 19.6 mph - N/A   Overcast
10:53 PM 19.0 °F 3.6 °F 12.0 °F 74% 30.63 in 10.0 mi North 18.4 mph - N/A   Overcast
11:53 PM 17.1 °F 2.5 °F 10.9 °F 77% 30.65 in 10.0 mi North 15.0 mph - N/A   Partly Cloudy